User: anonymous   Login
Location: Fort Worth, Tx
(32.7431°N, 97.3695°W)
Time: 15:22:36
(UTC-04:00)
Language:

Tiros 1 - Orbit

View from above orbital plane
View from above orbital plane
View from above satellite
View from above satellite

Ground track
Ground track

The orbit data is extracted from the following two-line orbital elements,

1 00029U 60002B   24197.89710929  .00001329  00000-0  21799-3 0  9993
2 00029  48.3789 112.9298 0022951 131.6460 228.6423 14.76477746438403
Epoch (UTC): 15 July 2024 21:31:50
Eccentricity: 0.0022951
inclination: 48.3789°
perigee height: 624 km
apogee height: 656 km
right ascension of ascending node: 112.9298°
argument of perigee: 131.6460°
revolutions per day: 14.76477746
mean anomaly at epoch: 228.6423°
orbit number at epoch: 43840

The dashed part of the orbit path shows where the satellite is in the earth's shadow,  

DLR